• Join FlightAware (Why Join?)
  • Login
  • US Flag GB Flag 
15:07 EST


 

Airport Tracker/Info


-or-


 

Live Flight TrackerFlight Track Log ✈ ASQ4577 ✈ 16-Jul-2013 ✈ KCLE - KALB

Flight Track Log - Related Links

Times and Time Zones

All times are in EDT time to prevent confusion due to time zone crossing. See the ASQ4577 flight status page for this flight to view local times or setup timezone preferences in your user account.

Time Position Orientation Groundspeed Altitude Reporting Facility
EDT Latitude Longitude Course Direction KTS MPH feet Rate Location/Type
19:06 41.4194 -81.8375 75° East 168 193 1,600  Level Cleveland Center
19:07 41.4719 -81.7969 30° Northeast 248 285 3,400 2,103 Climbing Cleveland Center
19:08 41.5244 -81.7536 32° Northeast 281 323 5,700 2,638 Climbing Cleveland Center
19:09 41.6411 -81.6090 37° Northeast  Level FlightAware Approximate
19:09 41.5836 -81.6936 37° Northeast 281 323 8,500  Level Cleveland Center
19:10 41.7222 -81.5278 37° Northeast  Level FlightAware Approximate
19:10 41.6508 -81.6225 38° Northeast 271 312 10,600  Level Cleveland Center
19:11 41.8033 -81.4467 37° Northeast  Level FlightAware Approximate
19:11 41.7225 -81.5456 39° Northeast 298 343 11,700  Level Cleveland Center
19:12 41.8434 -81.3329 75° East  Level FlightAware Approximate
19:12 41.8003 -81.4606 39° Northeast 331 381 13,300  Level Cleveland Center
19:13 41.8511 -81.3469 59° Northeast 342 394 15,000 1,550 Climbing Cleveland Center
19:14 41.8708 -81.2106 79° East 354 407 16,400 1,350 Climbing Cleveland Center
19:15 41.8942 -81.0714 77° East 372 428 17,700 1,100 Climbing Cleveland Center
19:16 41.9136 -80.9458 78° East 377 434 18,600 1,100 Climbing Cleveland Center
19:17 41.9389 -80.7925 77° East 382 440 19,900 1,150 Climbing Cleveland Center
19:18 41.9600 -80.6642 77° East 382 440 20,900 1,050 Climbing Cleveland Center
19:19 41.9828 -80.5133 78° East 400 460 22,000 1,150 Climbing Cleveland Center
19:20 42.0036 -80.3681 79° East 400 460 23,200 1,150 Climbing Cleveland Center
19:21 42.0281 -80.2197 77° East 400 460 24,300 1,100 Climbing Cleveland Center
19:22 42.0525 -80.0686 78° East 400 460 25,400 1,150 Climbing Cleveland Center
19:23 42.0767 -79.9033 79° East 407 468 26,600 1,150 Climbing Cleveland Center
19:24 42.0989 -79.7550 79° East 412 474 27,700 1,150 Climbing Cleveland Center
19:25 42.1183 -79.6089 80° East 412 474 28,900 1,150 Climbing Cleveland Center
19:26 42.1419 -79.4547 78° East 412 474 30,000 1,050 Climbing Cleveland Center
19:27 42.1614 -79.3058 80° East 412 474 31,000 500 Climbing Cleveland Center
19:28 42.1825 -79.1625 79° East 420 483 31,000  Level Cleveland Center
19:29 42.2053 -78.9853 80° East 432 497 31,000  Level Cleveland Center
19:30 42.2261 -78.8333 79° East 450 518 31,000  Level Cleveland Center
19:31 42.2483 -78.6617 80° East 455 524 31,000  Level Cleveland Center
19:32 42.2703 -78.4842 80° East 460 529 31,000  Level Cleveland Center
19:33 42.2919 -78.3122 80° East 465 535 31,000  Level Cleveland Center
19:34 42.3133 -78.1347 81° East 465 535 31,000  Level Cleveland Center
19:35 42.3325 -77.9625 81° East 465 535 31,000 -350 Level Cleveland Center
19:36 42.3536 -77.7931 80° East 465 535 30,300 -541 Descending Cleveland Center
19:39 42.4064 -77.3111 81° East 464 534 29,000 -351 Descending Boston Center
19:40 42.4225 -77.1775 81° East 459 528 29,000  Level Boston Center
19:41 42.4428 -76.9847 82° East 459 528 29,000  Level Boston Center
19:42 42.4619 -76.8142 81° East 459 528 29,000  Level Boston Center
19:43 42.4811 -76.6411 81° East 464 534 29,000  Level Boston Center
19:44 42.5000 -76.4675 82° East 464 534 29,000  Level Boston Center
19:45 42.5183 -76.2969 82° East 464 534 29,000  Level Boston Center
19:46 42.5406 -76.0672 82° East 464 534 29,000  Level Boston Center
19:47 42.5583 -75.8961 82° East 464 534 29,000  Level Boston Center
19:48 42.5761 -75.7222 82° East 464 534 29,000  Level Boston Center
19:49 42.5908 -75.5622 83° East 472 543 29,000 -350 Level Boston Center
19:50 42.6081 -75.3881 82° East 472 543 28,300 -1,400 Descending Boston Center
19:51 42.6200 -75.2447 83° East 467 537 26,200 -2,950 Descending Boston Center
19:52 42.6397 -75.0367 83° East 462 532 22,400 -3,735 Descending Boston Center
19:53 42.6506 -74.9186 83° East 441 507 20,100 -3,405 Descending Boston Center
19:54 42.6692 -74.7272 82° East 411 473 16,100 -2,887 Descending Boston Center
19:54 42.6722 -74.6767 85° East 417 480 15,000 -2,323 Descending Boston Center
19:55 42.6753 -74.5158 88° East 385 443 12,500 -2,000 Descending Boston Center
19:56 42.6528 -74.3711 102° East 362 417 11,000 -1,500 Descending Boston Center
19:57 42.6378 -74.2775 102° East 311 358 9,500 -1,733 Descending Boston Center
19:58 42.6283 -74.2094 101° East 270 311 8,400 -2,000 Descending Boston Center
19:58 42.6189 -74.1583 104° East 284 327 7,500 -1,900 Descending Boston Center
19:59 42.6092 -74.1100 105° East 278 320 6,500 -1,900 Descending Boston Center
19:59 42.6014 -74.0619 102° East 273 314 5,600 -1,701 Descending Boston Center
20:00 42.5919 -74.0025 102° East 274 315 4,600 -1,469 Descending Boston Center
20:01 42.5764 -73.9064 102° East 262 302 3,200 -1,140 Descending Boston Center
20:02 42.5942 -73.8192 74° East 216 249 2,300 -900 Descending Boston Center